Regional Weather Roundup
Issued by NWS

Home | Current Version | Previous Version | Graphics & Text | Print | Product List | Glossary On
Versions: 1 2 3 4 5 6 7 8 9 10 11 12 13 14 15 16 17 18 19 20 21 22 23 24 25 26 27 28 29 30 31 32 33 34 35 36 37 38 39 40 41 42 43 44 45 46 47 48 49 50
431
ASUS43 KIND 262009
RWRIN

WEATHER ROUNDUP FOR INDIANA
NATIONAL WEATHER SERVICE INDIANAPOLIS IN
400 PM EDT FRI MAY 26 2017

NOTE: "FAIR" INDICATES FEW OR NO CLOUDS BELOW 12,000 FEET WITH NO
SIGNIFICANT WEATHER AND/OR OBSTRUCTIONS TO VISIBILITY.

* - STATION DOES NOT REPORT WEATHER SUCH AS PRECIPITATION OR FOG.

+ - STATION NOT QUALITY CONTROLLED BY THE NATIONAL WEATHER SERVICE.
    USE DATA WITH CAUTION...ESPECIALLY DEWPOINT AND RELATIVE
    HUMIDITY OBSERVATIONS.

INZ001>003-010>013-019-020-262100-
NORTHWEST INDIANA

CITY           SKY/WX    TMP DP  RH WIND       PRES   REMARKS
GARY /AIRPORT/ PTSUNNY   68  52  56 E14       29.83F
KNOX *+        PTSUNNY   73  43  33 S6        29.83F
LA PORTE +     CLOUDY    72  55  55 E6        29.84F
MICHIGAN CITY+ CLOUDY    72  55  56 E5        29.84S
MONTICELLO +   MOSUNNY   75  58  56 S7        29.84R
RENSSELAER +   MOSUNNY   77  55  47 SE14      29.83S
VALPARAISO     PTSUNNY   75  57  53 SE9       29.83F

$$

LMZ046-743>745-262100-
SOUTHERN LAKE MICHIGAN

STATION/POSITION TIME  TEMP    WIND        PRES    WAVE
                       AIR SEA DIR/SP/G            HT
                 (UTC) (F)     (DEG/KT/KT) (MB)    (FT)
BURNS HARBOR     1940   59      80/ 12/ 13 1010.5F
MICHIGAN CITY    1940   57      40/  9/ 10   N/A
5NW MICH CITY    2000   54 54   60/  8/  8   N/A     1

$$

INZ004-005-014>016-021>024-262100-
NORTH CENTRAL INDIANA

CITY           SKY/WX    TMP DP  RH WIND       PRES   REMARKS
ELKHART        CLOUDY    70  52  52 CALM      29.85S
GOSHEN         CLOUDY    70  52  52 SE5       29.86R
LOGANSPORT +   CLOUDY    72  57  60 SE6       29.86R
PERU/GRISSOM   CLOUDY    73  60  63 SE8       29.83F
ROCHESTER +    CLOUDY    75  54  46 SE6       29.85S
SOUTH BEND     CLOUDY    70  55  59 VRB3      29.86S
WARSAW +       MOSUNNY   68  54  60 CALM      29.86S

$$

INZ006>009-017-018-025>027-262100-
NORTHEAST INDIANA

CITY           SKY/WX    TMP DP  RH WIND       PRES   REMARKS
ANGOLA *+      PTSUNNY   70  61  73 SW7       29.86R
AUBURN +       CLOUDY    68  54  60 CALM      29.87S
FORT WAYNE     CLOUDY    70  56  61 SW6       29.87S
HUNTINGTON +   CLOUDY    69  56  63 CALM      29.85F
KENDALLVILLE + CLOUDY    69  54  59 SW5       29.87S

$$

INZ028-029-035-036-043>045-051>053-262100-
WEST CENTRAL INDIANA

CITY           SKY/WX    TMP DP  RH WIND       PRES   REMARKS
CRAWFORDSVL +  CLOUDY    75  60  59 SE9       29.83F
GREENCASTLE +  CLOUDY    73  59  60 S9        29.84F
LAFAYETTE      PTSUNNY   76  60  57 S7        29.81R
TERRE HAUTE    CLOUDY    78  63  59 SE10      29.80F

$$

INZ030>032-037>040-046>048-054>057-064-065-262100-
CENTRAL INDIANA

CITY           SKY/WX    TMP DP  RH WIND       PRES   REMARKS
ANDERSON       SUNNY     73  59  60 SW7       29.86F
CP ATTERBURY + CLOUDY    77  59  53 S12       29.86S
COLUMBUS       PTSUNNY   75  54  46 S14G20    29.87R
FISHERS *+     CLOUDY    77  63  61 S9G20     29.85R
FRANKFORT +    MOSUNNY   80  62  54 SW7       29.86R
GREENWOOD *+   MOSUNNY   77  58  52 S12G20    29.86R
INDIANAPOLIS   PTSUNNY   76  59  55 S17       29.84R
-EAGLE CREEK   MOSUNNY   78  57  48 S10       29.84R
KOKOMO +       CLOUDY    73  60  63 SE9       29.85F
MARION +       CLOUDY    72  57  60 SE6       29.86F
MT COMFORT *+  SUNNY     77  59  53 SW12G20   29.86R
SHELBYVILLE    SUNNY     79  58  48 S18       29.85R
ZIONSVILLE +   SUNNY     76  59  55 S13G20    29.86R

$$

INZ033-034-041-042-049-050-058-059-262100-
EAST CENTRAL INDIANA

CITY           SKY/WX    TMP DP  RH WIND       PRES   REMARKS
MUNCIE         MOSUNNY   73  57  57 S3        29.85F
RICHMOND +     CLOUDY    73  55  53 S6        29.88F

$$

INZ060-061-067>069-081>083-085>088-262100-
SOUTHWEST INDIANA

CITY           SKY/WX    TMP DP  RH WIND       PRES   REMARKS
EVANSVILLE     PTSUNNY   83  59  44 S13       29.81F
HUNTINGBURG *+ SUNNY     81  63  54 S15       29.83F
WASHINGTON +   MOSUNNY   80  63  56 S14G20    29.81F

$$

INZ062-063-066-070>080-084-089>092-262100-
SOUTH CENTRAL AND SOUTHEAST INDIANA

CITY           SKY/WX    TMP DP  RH WIND       PRES   REMARKS
BEDFORD +      PTSUNNY   77  59  53 S8        29.84F
BLOOMINGTON    MOSUNNY   79  61  53 S13G20    29.83F
MADISON *+     PTSUNNY   79  55  44 S10G16    29.90R
NORTH VERNON + PTSUNNY   75  59  57 S12G21    29.88R
SEYMOUR +      PTSUNNY   79  61  53 S9        29.85S

$$





USA.gov is the U.S. government's official web portal to all federal, state and local government web resources and services.